• In Hungary
  • List of Countries
  • For 7 days
  • Water Temperature
  • Satellite Maps
  • Weather Map
  • News
  • Weather Widgets
  • user-avatar
    Login

    Hourly Weather Padang

    Today, 16 July, Monday

    Time Temperature Precipitation Wind Pressure Humidity
    00:00 +25°C° 0 mm 2 mps 757 mmHg 83%
    01:00 +25°C° 0 mm 2 mps 757 mmHg 81%
    02:00 +25°C° 0 mm 2 mps 757 mmHg 80%
    03:00 +25°C° 0 mm 2 mps 757 mmHg 79%
    04:00 +25°C° 0 mm 2 mps 757 mmHg 78%
    05:00 +25°C° 0 mm 2 mps 757 mmHg 77%
    06:00 +25°C° 0 mm 2 mps 757 mmHg 76%
    07:00 +26°C° 0 mm 1 mps 757 mmHg 79%
    08:00 +28°C° 0 mm 1 mps 757 mmHg 69%
    09:00 +31°C° 0 mm 1 mps 757 mmHg 60%
    10:00 +33°C° 0 mm 1 mps 757 mmHg 50%
    11:00 +35°C° 0 mm 2 mps 756 mmHg 48%
    12:00 +36°C° 0 mm 2 mps 756 mmHg 47%
    13:00 +36°C° 0 mm 2 mps 756 mmHg 45%
    14:00 +36°C° 0 mm 2 mps 755 mmHg 48%
    15:00 +35°C° 0 mm 2 mps 755 mmHg 51%
    16:00 +35°C° 0 mm 2 mps 754 mmHg 54%
    17:00 +32°C° 0 mm 2 mps 754 mmHg 65%
    18:00 +29°C° 0 mm 2 mps 755 mmHg 76%
    19:00 +27°C° 0 mm 2 mps 755 mmHg 87%
    20:00 +27°C° 0 mm 2 mps 755 mmHg 88%
    21:00 +26°C° 0 mm 2 mps 756 mmHg 88%
    22:00 +26°C° 0 mm 2 mps 756 mmHg 88%
    23:00 +26°C° 0 mm 2 mps 756 mmHg 87%

    Tomorrow, 17 July, Tuesday

    Time Temperature Precipitation Wind Pressure Humidity
    00:00 +26°C° 0 mm 2 mps 757 mmHg 86%
    01:00 +26°C° 0 mm 2 mps 757 mmHg 85%
    02:00 +26°C° 0 mm 2 mps 756 mmHg 84%
    03:00 +26°C° 0 mm 2 mps 756 mmHg 83%
    04:00 +26°C° 0 mm 1 mps 756 mmHg 82%
    05:00 +26°C° 0 mm 1 mps 756 mmHg 81%
    06:00 +26°C° 0 mm 1 mps 756 mmHg 80%
    07:00 +26°C° 0 mm 1 mps 756 mmHg 79%
    08:00 +29°C° 0 mm 1 mps 756 mmHg 70%
    09:00 +31°C° 0 mm 2 mps 756 mmHg 61%
    10:00 +35°C° 0 mm 2 mps 756 mmHg 52%
    11:00 +35°C° 0 mm 2 mps 756 mmHg 52%
    12:00 +36°C° 0 mm 2 mps 756 mmHg 51%
    13:00 +36°C° 0 mm 3 mps 755 mmHg 50%
    14:00 +36°C° 0 mm 3 mps 755 mmHg 53%
    15:00 +36°C° 0 mm 3 mps 754 mmHg 55%
    16:00 +35°C° 0 mm 3 mps 754 mmHg 57%
    17:00 +32°C° 0 mm 2 mps 754 mmHg 68%
    18:00 +30°C° 0 mm 2 mps 754 mmHg 79%
    19:00 +28°C° 0 mm 2 mps 755 mmHg 89%
    20:00 +27°C° 0 mm 2 mps 755 mmHg 89%
    21:00 +27°C° 0 mm 2 mps 756 mmHg 89%
    22:00 +27°C° 0 mm 2 mps 757 mmHg 88%
    23:00 +27°C° 0 mm 2 mps 757 mmHg 87%

    Day after tomorrow, 18 July, Wednesday

    Time Temperature Precipitation Wind Pressure Humidity
    00:00 +26°C° 0 mm 2 mps 757 mmHg 85%
    01:00 +26°C° 0 mm 2 mps 757 mmHg 84%
    02:00 +26°C° 0 mm 2 mps 756 mmHg 84%
    03:00 +26°C° 0 mm 1 mps 756 mmHg 84%
    04:00 +26°C° 0 mm 1 mps 756 mmHg 84%
    05:00 +26°C° 0 mm 1 mps 756 mmHg 84%
    06:00 +27°C° 0 mm 1 mps 756 mmHg 84%
    07:00 +27°C° 0 mm 1 mps 756 mmHg 85%
    08:00 +29°C° 0 mm 1 mps 757 mmHg 78%
    09:00 +31°C° 0 mm 1 mps 757 mmHg 71%
    10:00 +32°C° 0 mm 1 mps 757 mmHg 64%
    11:00 +33°C° 0 mm 1 mps 757 mmHg 64%
    12:00 +34°C° 0 mm 2 mps 756 mmHg 63%
    13:00 +35°C° 0 mm 2 mps 756 mmHg 63%
    14:00 +34°C° 0.6 mm 2 mps 755 mmHg 68%
    15:00 +34°C° 0.6 mm 2 mps 755 mmHg 73%
    16:00 +32°C° 0.6 mm 2 mps 755 mmHg 78%
    17:00 +30°C° 0.4 mm 1 mps 755 mmHg 83%
    18:00 +29°C° 0.4 mm 1 mps 756 mmHg 87%
    19:00 +28°C° 0.4 mm 1 mps 756 mmHg 92%
    20:00 +27°C° 0 mm 1 mps 757 mmHg 92%
    21:00 +27°C° 0 mm 1 mps 758 mmHg 92%
    22:00 +27°C° 0 mm 1 mps 758 mmHg 92%
    23:00 +27°C° 0 mm 1 mps 758 mmHg 91%

    19 July, Thursday

    Time Temperature Precipitation Wind Pressure Humidity
    00:00 +27°C° 0 mm 1 mps 758 mmHg 90%
    01:00 +26°C° 0 mm 2 mps 758 mmHg 89%
    02:00 +26°C° 0.1 mm 2 mps 757 mmHg 89%
    03:00 +26°C° 0.1 mm 2 mps 757 mmHg 89%
    04:00 +26°C° 0.1 mm 2 mps 757 mmHg 89%
    05:00 +26°C° 0.1 mm 2 mps 757 mmHg 88%
    06:00 +27°C° 0.1 mm 2 mps 757 mmHg 87%
    07:00 +27°C° 0.1 mm 2 mps 758 mmHg 87%
    08:00 +28°C° 0.1 mm 2 mps 758 mmHg 82%
    09:00 +30°C° 0.1 mm 1 mps 758 mmHg 77%
    10:00 +31°C° 0.1 mm 1 mps 759 mmHg 72%
    11:00 +31°C° 0 mm 1 mps 758 mmHg 69%
    12:00 +32°C° 0 mm 2 mps 758 mmHg 66%
    13:00 +34°C° 0 mm 2 mps 757 mmHg 63%
    14:00 +32°C° 0.1 mm 2 mps 757 mmHg 65%
    15:00 +32°C° 0.1 mm 2 mps 756 mmHg 67%
    16:00 +31°C° 0.1 mm 2 mps 756 mmHg 69%
    17:00 +30°C° 0 mm 1 mps 756 mmHg 74%
    18:00 +29°C° 0 mm 1 mps 757 mmHg 79%
    19:00 +28°C° 0 mm 1 mps 757 mmHg 84%
    20:00 +27°C° 0 mm 1 mps 758 mmHg 84%
    21:00 +27°C° 0 mm 1 mps 759 mmHg 85%
    22:00 +27°C° 0 mm 1 mps 759 mmHg 85%
    23:00 +27°C° 0 mm 1 mps 759 mmHg 86%

    20 July, Friday

    Time Temperature Precipitation Wind Pressure Humidity
    00:00 +27°C° 0 mm 1 mps 759 mmHg 86%
    01:00 +26°C° 0 mm 2 mps 758 mmHg 87%
    02:00 +26°C° 0 mm 2 mps 758 mmHg 88%
    03:00 +26°C° 0 mm 2 mps 758 mmHg 88%
    04:00 +26°C° 0 mm 2 mps 757 mmHg 89%
    05:00 +26°C° 0 mm 2 mps 758 mmHg 89%
    06:00 +26°C° 0 mm 2 mps 758 mmHg 89%
    07:00 +26°C° 0 mm 2 mps 758 mmHg 88%
    08:00 +29°C° 0.1 mm 2 mps 759 mmHg 79%
    09:00 +31°C° 0.1 mm 2 mps 759 mmHg 70%
    10:00 +34°C° 0.1 mm 2 mps 759 mmHg 60%
    11:00 +34°C° 0.2 mm 2 mps 759 mmHg 63%
    12:00 +34°C° 0.2 mm 2 mps 758 mmHg 66%
    13:00 +34°C° 0.2 mm 2 mps 758 mmHg 68%
    14:00 +34°C° 0.4 mm 2 mps 757 mmHg 72%
    15:00 +32°C° 0.4 mm 2 mps 757 mmHg 75%
    16:00 +31°C° 0.4 mm 2 mps 756 mmHg 79%
    17:00 +30°C° 0.2 mm 2 mps 757 mmHg 83%
    18:00 +29°C° 0.2 mm 2 mps 757 mmHg 87%
    19:00 +27°C° 0.2 mm 1 mps 758 mmHg 91%
    20:00 +27°C° 0 mm 1 mps 758 mmHg 92%
    21:00 +27°C° 0 mm 1 mps 759 mmHg 92%
    22:00 +27°C° 0 mm 1 mps 759 mmHg 93%
    23:00 +27°C° 0 mm 1 mps 759 mmHg 93%

    21 July, Saturday

    Time Temperature Precipitation Wind Pressure Humidity
    00:00 +27°C° 0 mm 1 mps 759 mmHg 93%
    01:00 +26°C° 0 mm 1 mps 758 mmHg 93%
    02:00 +26°C° 0 mm 1 mps 758 mmHg 93%
    03:00 +26°C° 0 mm 1 mps 758 mmHg 92%
    04:00 +26°C° 0 mm 1 mps 758 mmHg 91%
    05:00 +26°C° 0.3 mm 1 mps 758 mmHg 91%
    06:00 +26°C° 0.3 mm 1 mps 758 mmHg 90%
    07:00 +26°C° 0.3 mm 1 mps 759 mmHg 89%
    08:00 +29°C° 0.1 mm 1 mps 759 mmHg 79%
    09:00 +31°C° 0.1 mm 1 mps 759 mmHg 70%
    10:00 +33°C° 0.1 mm 1 mps 759 mmHg 60%
    11:00 +34°C° 0 mm 1 mps 759 mmHg 57%
    12:00 +34°C° 0 mm 1 mps 758 mmHg 54%
    13:00 +35°C° 0 mm 1 mps 758 mmHg 51%
    14:00 +34°C° 0 mm 1 mps 757 mmHg 56%
    15:00 +33°C° 0 mm 1 mps 757 mmHg 61%
    16:00 +32°C° 0 mm 1 mps 757 mmHg 66%
    17:00 +31°C° 0.2 mm 1 mps 757 mmHg 74%
    18:00 +29°C° 0.2 mm 1 mps 758 mmHg 81%
    19:00 +28°C° 0.2 mm 1 mps 758 mmHg 89%
    20:00 +27°C° 0 mm 1 mps 759 mmHg 88%
    21:00 +27°C° 0 mm 1 mps 759 mmHg 88%
    22:00 +27°C° 0 mm 1 mps 760 mmHg 87%
    23:00 +27°C° 0 mm 1 mps 759 mmHg 87%
    Show more